Weather Roundup
Issued by NWS Chicago, IL

Home | Current Version | Previous Version | Graphics & Text | Print | Product List | Glossary On
Versions: 1 2 3 4 5 6 7 8 9 10 11 12 13 14 15 16 17 18 19 20 21 22 23 24 25 26 27 28 29 30 31 32 33 34 35 36 37 38 39 40 41 42 43 44 45 46 47 48 49 50
000
NZUS59 KLOT 300103
HRRLOT

CHICAGO AREA WEATHER ROUNDUP
NATIONAL WEATHER SERVICE CHICAGO/ROMEOVILLE IL
800 PM CDT THU SEP 29 2016

NOTE: "FAIR" INDICATES FEW OR NO CLOUDS BELOW 12,000 FEET WITH NO
SIGNIFICANT WEATHER AND/OR OBSTRUCTIONS TO VISIBILITY.

* THESE STATIONS ARE NOT UNDER NWS QUALITY CONTROL. THEY ALSO MAY NOT
  REPORT WEATHER SUCH AS PRECIPITATION OR FOG.

ILZ005-006-012>014-019>023-300200-
NORTHEAST ILLINOIS

CITY           SKY/WX    TMP DP  RH WIND       PRES   REMARKS
OHARE          CLOUDY    63  57  81 NE9       30.23R
MIDWAY         CLOUDY    64  56  75 NE17G23   30.22R
AURORA         CLOUDY    63  58  83 N10       30.23S
LANSING*       CLOUDY    62  59  90 NE15      30.21R
WAUKEGAN       CLOUDY    62  58  86 NE5       30.25R
DUPAGE AIRPORT CLOUDY    62  57  83 N10       30.23S
WHEELING       CLOUDY    63  57  81 NE9       30.25R
KANKAKEE*      PTCLDY    61  58  90 N9        30.18S
NORTHERLY ISL    N/A     62  57  83 NE16        N/A
$$

WIZ051-052-058>065-066-070>072-300200-
SOUTHEAST WISCONSIN

CITY           SKY/WX    TMP DP  RH WIND       PRES   REMARKS
MILWAUKEE      MOCLDY    62  57  83 N17G25    30.28R
KENOSHA*       CLOUDY    61  58  90 NE7       30.27R
RACINE*        CLOUDY    59  57  93 N13       30.28S
WAUKESHA       MOCLDY    61  55  82 NE9       30.29S
WEST BEND      PTCLDY    64  63  94 N10G16    30.30S
$$

INZ001>003-010>013-019-020-300200-
NORTHWEST INDIANA

CITY           SKY/WX    TMP DP  RH WIND       PRES   REMARKS
GARY*          CLOUDY    64  59  82 NE14      30.21R
MICHIGAN CITY* NOT AVBL
RENSSELAER*    NOT AVBL
VALPARAISO     LGT RAIN  62  57  83 VRB7      30.19R
$$

LMZ740>746-300200-
SOUTHERN LAKE MICHIGAN

STATION/POSITION TIME  SKY/WX   TEMP WIND        PRES    VSBY
                                AIR  DIR/SP/G
                 (UTC)          (F)  (DEG/KT/KT) (MB)    (MI)
HARRISON CRIB    0040            64   50/ 24/ 26   N/A
BURNHAM HARBOR   0100            62   40/ 13/ 17   N/A
CALUMET HARBOR   0030            63   30/ 15/ 19 1022.5R
BURNS HARBOR     0040            63   40/ 20/ 23 1022.7R
MICHIGAN CITY    0040            61   20/ 21/ 23   N/A
$$

ABBREVIATIONS USED IN REMARKS
   TC - TEMPERATURE IN CELSIUS
  WCI - WIND CHILL INDEX
   HX - HEAT INDEX
  VSB - VISIBILITY
$$



USA.gov is the U.S. government's official web portal to all federal, state and local government web resources and services.